Location: Ferchesar
(52.6477°N, 12.4298°E)
Time: 08:58:27
(UTC+01:00)

S-56A Canister/Altair - Pass Details

Date: 11 December 2021
Orbit: 633 x 2499 km, 38.9° (Epoch: 19 January)

Event Time Altitude Azimuth Distance (km) Brightness Sun altitude
Rises 02:31:51 0° 267° (W) 4,857 - -49.1°
Reaches altitude 10° 02:36:34 10° 252° (WSW) 3,478 - -48.5°
Maximum altitude 02:41:52 18° 212° (SSW) 2,449 - -47.8°
Drops below altitude 10° 02:46:06 10° 171° (S) 2,668 - -47.2°
Sets 02:49:07 0° 152° (SSE) 3,375 - -46.8°
